Starlink 31156

operational
NORAD ID: 58743 Int'l Des: 2024-005 Owner: SPXS Country: US Constellation: starlink
LEOCIRCULAR

About Starlink 31156

Description loading...

Live Position

Loading 3D Globe...

Upcoming Passes

Altitude History

Altitude vs Time

uPlot chart will show altitude changes over time

Two-Line Element Set

1 58743U 24005R 25350.93790403 -.00000179 00000-0 17987-5 0 9993
2 58743 43.0039 311.2811 0001082 274.7140 85.3579 15.02537171108021
Epoch: Dec 16, 2025 • Age: 8 hours

Current Status

Altitude 558.5 km
Velocity 7.58 km/s
Sub-Earth Point 3.12°N, 129.05°E
Launch Date Jan 7, 2024
Age 1.9 years
Type internet

Technical Details

Classification Payload
Mass 730.00 kg
Dry Mass 700.00 kg
Total Mass 730.00 kg
Length 0.30 m
Diameter 4.10 m
Span 29.00 m
Shape Box + pan
Manufacturer SPXS
Bus Type Starlink V2M
Phase Status In Orbit
Owner/State SPXS/US

Large Constellations

Loading constellations...